(3) Juno
(3) Juno
Epoch 2007 Oct. 27.0 TT = JDT 2454400.5 (M-c) Bowell
M 166.44326 (2000.0) P Q
n 0.22607182 Peri. 247.88018 +0.52612120 -0.84953447
a 2.6687328 Node 170.10208 +0.83925354 +0.51136262
e 0.2576105 Incl. 12.96672 +0.13729521 +0.12961272
P 4.36 H 5.33 G 0.32
From 4741 observations at 65 oppositions, 1839-1993, mean residual 0".56.
An explanation of the orbital
elements is available.These orbital elements are also available in forms suitable for loading into a number of popular planetarium-type software programs.
Personalized ephemerides for this object (and others) can be generated using the MPES.
Date TT R. A. (2000) Decl. Delta r Elong. Phase V 2008 03 21 17 50.10 -09 48.4 3.126 3.331 93.1 17.4 11.1 2008 03 26 17 52.63 -09 27.7 3.052 3.328 97.2 17.3 11.1 2008 03 31 17 54.71 -09 06.0 2.978 3.325 101.5 17.1 11.0 2008 04 05 17 56.34 -08 43.6 2.906 3.322 105.9 16.8 11.0 2008 04 10 17 57.47 -08 20.6 2.835 3.318 110.3 16.5 10.9 2008 04 15 17 58.10 -07 57.2 2.767 3.315 114.8 16.0 10.8 2008 04 20 17 58.21 -07 33.7 2.700 3.311 119.4 15.3 10.8 2008 04 25 17 57.80 -07 10.3 2.637 3.307 124.0 14.6 10.7 2008 04 30 17 56.84 -06 47.3 2.578 3.303 128.7 13.8 10.6 2008 05 05 17 55.35 -06 24.9 2.523 3.298 133.4 12.8 10.5 2008 05 10 17 53.34 -06 03.7 2.472 3.294 138.2 11.8 10.5 2008 05 15 17 50.83 -05 43.8 2.426 3.289 142.9 10.7 10.4 2008 05 20 17 47.87 -05 25.6 2.386 3.284 147.5 9.5 10.3 2008 05 25 17 44.49 -05 09.4 2.352 3.279 151.8 8.4 10.2 2008 05 30 17 40.76 -04 55.6 2.324 3.274 155.7 7.3 10.2 2008 06 04 17 36.75 -04 44.6 2.302 3.269 158.9 6.4 10.1 2008 06 09 17 32.54 -04 36.4 2.288 3.264 160.9 5.9 10.1 2008 06 14 17 28.23 -04 31.4 2.280 3.258 161.3 5.8 10.0 2008 06 19 17 23.91 -04 29.7 2.279 3.252 160.0 6.1 10.1 2008 06 24 17 19.68 -04 31.2 2.285 3.246 157.3 6.9 10.1 2008 06 29 17 15.62 -04 36.0 2.297 3.240 153.7 8.0 10.1 2008 07 04 17 11.83 -04 44.0 2.316 3.234 149.5 9.2 10.2 2008 07 09 17 08.37 -04 55.1 2.341 3.227 145.0 10.4 10.2 2008 07 14 17 05.32 -05 08.9 2.372 3.221 140.4 11.6 10.3 2008 07 19 17 02.73 -05 25.3 2.408 3.214 135.6 12.8 10.4 2008 07 24 17 00.63 -05 43.9 2.449 3.207 130.9 13.9 10.4 2008 07 29 16 59.04 -06 04.6 2.493 3.200 126.2 14.8 10.5 2008 08 03 16 57.99 -06 26.9 2.542 3.193 121.6 15.7 10.6 2008 08 08 16 57.49 -06 50.6 2.594 3.185 117.0 16.5 10.6 2008 08 13 16 57.54 -07 15.4 2.648 3.178 112.5 17.1 10.7 2008 08 18 16 58.12 -07 40.9 2.705 3.170 108.2 17.7 10.7 2008 08 23 16 59.21 -08 07.0 2.764 3.162 103.9 18.1 10.8 2008 08 28 17 00.82 -08 33.4 2.823 3.154 99.7 18.4 10.8 2008 09 02 17 02.91 -09 00.0 2.884 3.146 95.5 18.6 10.9 2008 09 07 17 05.46 -09 26.3 2.945 3.138 91.5 18.7 10.9